Powrót do katalogu

TITAN 34B AGENA D DEB

AktywnyHEO
NORAD 23811·DEBRIS·🇺🇸 United States

Wystrzelony Jul 31, 1983 z Vandenberg Space Force Base

Loading…

Następne Przeloty (najbliższe 24 godziny)

TLE

ŚwieżeSource: Space-Track

Epoka: Sep 13, 2026, 18:08 UTC

1 23811U 83078C   26256.75579120  .00004708  00000-0  23244-2 0  9994
2 23811  63.3576  53.5226 4881983 248.9633  53.4631  5.71138283143082

Śledź TITAN 34B AGENA D DEB w czasie rzeczywistym z AllMySat

Download on the App Store